Retour au catalogue

SL-16 DEB

ActifLEO
NORAD 49051·DEBRIS·🇷🇺 Russia

Lancé Dec 25, 1992 depuis Baikonur Cosmodrome

Loading…

Prochains Passages (prochaines 24 heures)

TLE

FraisSource: Space-Track

Époque: Sep 14, 2026, 13:41 UTC

1 49051U 92093LY  26257.57079007  .00000449  00000-0  25168-3 0  9991
2 49051  71.0235 327.4133 0005924 347.2187  12.8785 14.15996901 39305

Suivez SL-16 DEB en temps réel avec AllMySat

Download on the App Store